User: anonymous   Login
Location: Hamburg
(53.5500°N, 10.0000°E)
Time: 13:55:33
(UTC+02:00)
Language:

Iridium 10 - Orbit

View from above orbital plane
View from above orbital plane
View from above satellite
View from above satellite

Ground track
Ground track

The orbit data is extracted from the following two-line orbital elements,

1 24839U 97030D   14297.37776411  .00000452  00000-0  15445-3 0   561
2 24839 086.3995 034.2182 0002133 110.0875 295.6279 14.34213961908381
Epoch (UTC): 24 October 2014 09:03:58
Eccentricity: 0.0002133
inclination: 86.3995°
perigee height: 776 km
apogee height: 779 km
right ascension of ascending node: 34.2182°
argument of perigee: 110.0875°
revolutions per day: 14.34213961
mean anomaly at epoch: 295.6279°
orbit number at epoch: 90838

The dashed part of the orbit path shows where the satellite is in the earth's shadow,  

DLR